Regional Weather Roundup
Issued by NWS Little Rock, AR

Home | Current Version | Previous Version | Graphics & Text | Print | Product List | Glossary On
Versions: 1 2 3 4 5 6 7 8 9 10 11 12 13 14 15 16 17 18 19 20 21 22 23 24 25 26 27 28 29 30 31 32 33
000
ASUS44 KLZK 151105
RWRLZK

WEATHER ROUNDUP FOR ARKANSAS
NATIONAL WEATHER SERVICE LITTLE ROCK AR
600 AM CDT TUE AUG 15 2017

NOTE: "FAIR" INDICATES FEW OR NO CLOUDS BELOW 12,000 FEET WITH NO
SIGNIFICANT WEATHER AND/OR OBSTRUCTIONS TO VISIBILITY.

ARZ001-003-010-029-151200-
NORTHWEST ARKANSAS

CITY           SKY/WX    TMP DP  RH WIND       PRES   REMARKS
FAYETTEVILLE   FOG       67  67 100 NW3       29.87F VSB 1
FORT SMITH     MOCLDY    76  75  97 CALM      29.83R
HARRISON       CLOUDY    69  69 100 E6        29.89R FOG
BENTONVILLE    CLOUDY    72  68  88 CALM      29.88S
ROGERS         HVY RAIN  71  70  96 E6        29.89S FOG
SILOAM SPGS    MOCLDY    70  68  94 E3        29.87F
HIGHFILL       CLOUDY    72  71  97 NE3       29.88S
SPRINGDALE     CLOUDY    72  72 100 CALM      29.89
$$

ARZ004-005-016-151200-
NORTH CENTRAL ARKANSAS

CITY           SKY/WX    TMP DP  RH WIND       PRES   REMARKS
BATESVILLE     CLOUDY    73  72  94 CALM      29.87S
FLIPPIN        MOCLDY    70  64  83 CALM      29.85R
MTN HOME       PTCLDY    71  71 100 SE3       29.87S
$$

ARZ040-041-151200-
WEST CENTRAL ARKANSAS

CITY           SKY/WX    TMP DP  RH WIND       PRES   REMARKS
MENA           PTCLDY    79  79 100 SW7       29.87R
MOUNT IDA      PTCLDY    78  75  90 VRB6      29.84R
$$

ARZ009-017-025-026-028-151200-
NORTHEAST ARKANSAS

CITY           SKY/WX    TMP DP  RH WIND       PRES   REMARKS
JONESBORO      CLOUDY    75  75 100 CALM      29.88S
NEWPORT        CLOUDY    74  73  97 CALM      29.88R
WALNUT RIDGE   CLOUDY    75  72  88 S5        29.89R
BLYTHEVILLE    FOG       74  74 100 SE3       29.89F VSB 1
$$

ARZ022-023-033-042-044-151200-
CENTRAL ARKANSAS

CITY           SKY/WX    TMP DP  RH WIND       PRES   REMARKS
LITTLE ROCK    CLOUDY    74  74 100 CALM      29.86R
JACKSONVILLE   CLOUDY    75  75 100 CALM      29.87R
CONWAY           N/A     73  73 100 CALM      29.86R FOG
SEARCY         CLOUDY    74  74 100 NE3       29.89R
HOT SPRINGS    MOCLDY    79  77  94 W7        29.86R
RUSSELLVILLE   TSTM      73  72  96 NW10G16   29.86R FOG
CLINTON        TSTM      72  70  94 VRB7      29.88S
$$

ARZ036-151200-
EAST ARKANSAS

CITY           SKY/WX    TMP DP  RH WIND       PRES   REMARKS
WEST MEMPHIS   CLOUDY    73  73 100 S3        29.87S
$$

ARZ050-053-066-070-073-151200-
SOUTHWEST ARKANSAS

CITY           SKY/WX    TMP DP  RH WIND       PRES   REMARKS
ARKADELPHIA    FAIR      75  75 100 CALM      29.86R
CAMDEN         PTCLDY    77  73  88 S6        29.86R
TEXARKANA      CLOUDY    77  76  96 S9        29.86R
EL DORADO      CLOUDY    77  76  96 S6        29.88R
DE QUEEN       MOCLDY    75  75 100 CALM      29.83S FOG
$$

ARZ056-057-069-151200-
SOUTHEAST ARKANSAS

CITY           SKY/WX    TMP DP  RH WIND       PRES   REMARKS
PINE BLUFF     CLEAR     76  74  93 S6        29.86S
MONTICELLO     CLOUDY    78  75  90 S8        29.87S

$$






USA.gov is the U.S. government's official web portal to all federal, state and local government web resources and services.